Theta_e
315 314 314 313 313 313 313 313 313 311 311 310 309 308 308 307 306 306 306 306 305 305 305 304 304 304 304 303 303 303 303 303 303 303 302 301 298 295 294 293 293 293 294 294 294 294 294 294 294 294 294 295
314 313 313 313 313 312 312 312 311 310 310 309 309 308 307 307 306 305 305 305 305 304 304 304 303 303 303 303 303 303 303 303 301 299 298 297 295 294 293 293 292 292 293 293 293 293 293 293 293 293 294 294
313 313 312 311 311 310 309 309 308 308 308 308 308 307 306 305 305 305 305 304 304 304 303 302 302 303 302 302 302 302 302 301 298 294 293 293 293 292 292 292 292 291 292 292 292 292 292 292 292 292 293 293
312 312 311 310 309 308 307 306 305 306 306 306 305 305 305 304 303 303 304 304 303 303 302 301 301 302 302 302 301 302 302 298 294 292 291 291 291 291 291 291 290 290 290 290 290 291 291 291 291 291 291 292
311 311 310 309 308 307 307 306 305 305 305 304 303 303 303 303 302 301 302 302 302 301 300 300 300 301 301 301 301 301 300 296 293 291 290 290 290 289 289 289 289 290 289 289 289 289 290 290 290 290 290 291
310 311 310 308 308 307 307 306 305 304 303 302 301 301 300 300 299 299 299 299 300 298 297 298 299 300 300 300 300 300 298 295 293 291 289 289 289 289 289 288 288 289 289 289 289 289 289 289 289 289 289 289
310 310 309 308 307 306 306 305 304 303 302 301 299 299 298 297 296 296 297 297 297 295 295 297 297 297 297 298 297 296 294 293 292 290 289 289 288 288 288 288 288 288 288 288 288 288 288 288 288 288 288 288
309 309 308 307 306 305 305 303 302 301 300 299 298 297 296 295 295 294 294 295 294 293 293 294 294 294 293 293 292 291 291 291 290 289 289 288 288 288 288 288 288 288 288 288 288 287 288 288 288 288 288 288
309 308 308 306 305 304 303 302 301 300 299 297 296 296 295 294 294 293 293 292 292 292 292 292 292 291 290 290 290 289 289 288 288 288 287 287 287 287 287 287 287 287 287 287 287 287 287 287 287 287 287 287
308 308 307 306 304 303 302 301 300 299 297 296 296 295 295 294 293 293 292 292 292 291 291 291 291 290 290 290 289 289 288 288 287 287 287 287 287 287 287 287 287 287 287 287 287 287 287 287 287 287 287 287
308 307 307 305 304 303 302 301 300 298 297 296 295 295 294 294 293 293 292 292 291 291 291 291 290 289 290 290 289 289 288 287 287 287 287 287 286 286 286 286 287 286 287 287 287 287 287 287 287 287 287 287
307 307 306 305 303 302 301 301 300 298 296 296 295 294 294 294 294 293 292 292 291 291 291 291 290 289 290 289 289 288 287 287 287 286 286 286 286 286 286 286 286 286 286 286 286 286 286 286 286 286 286 286
307 307 306 304 303 302 301 300 299 298 297 296 295 294 294 294 294 293 293 292 292 291 291 291 290 289 289 289 289 288 287 287 286 286 286 286 286 286 286 286 286 286 286 286 286 286 286 286 286 286 286 286
307 306 305 303 302 301 301 300 299 298 297 296 295 295 294 294 294 293 293 293 292 292 291 291 290 289 289 289 289 288 287 287 286 286 286 286 285 285 286 285 285 285 285 285 285 285 285 285 286 286 286 286
307 306 305 303 302 301 301 300 299 298 297 296 295 295 295 294 293 293 293 293 292 292 291 291 290 290 289 289 289 289 288 287 286 285 285 285 285 285 285 285 285 285 285 285 285 285 285 285 285 285 285 285
307 306 304 303 302 301 300 300 299 298 297 296 295 295 295 294 294 293 293 293 292 292 292 291 291 290 290 289 289 289 288 286 286 285 285 285 285 285 284 285 285 285 284 284 285 285 285 284 284 285 285 285
307 305 304 303 302 301 300 299 299 298 297 296 296 295 295 295 294 294 293 293 293 292 292 291 291 290 290 289 289 289 288 286 286 285 285 284 284 284 284 284 284 284 284 284 284 284 284 284 284 284 284 284
307 305 304 303 302 301 300 299 299 298 298 297 296 296 295 295 294 294 294 293 293 292 292 291 291 291 290 289 289 289 288 287 286 285 285 284 284 284 284 284 284 284 284 284 284 284 284 284 284 284 284 284
307 305 304 303 302 301 300 299 299 298 298 297 297 296 296 295 295 294 294 294 293 292 292 292 291 291 290 290 289 289 288 287 286 285 285 284 284 284 284 284 284 284 284 283 283 283 283 283 283 283 283 283
307 306 304 303 302 301 301 299 299 298 298 297 297 297 296 296 295 295 294 294 293 293 292 292 292 291 291 290 289 289 288 287 286 285 285 284 284 284 284 283 283 283 283 283 283 283 283 283 283 283 283 283
306 305 304 303 302 301 301 299 299 299 298 297 297 297 297 296 296 295 294 294 293 293 293 292 292 291 291 290 289 289 288 288 287 285 285 284 284 283 283 283 283 283 283 283 283 283 283 283 283 283 282 282
305 304 303 303 302 301 300 299 299 299 298 297 297 297 297 297 296 295 295 294 294 293 292 292 292 291 291 290 289 288 288 288 286 285 285 284 284 283 283 283 283 283 283 283 282 282 282 282 282 282 282 282
303 302 301 300 299 299 298 298 298 298 297 297 298 298 297 297 296 295 295 294 294 293 293 292 291 291 291 290 289 288 288 287 286 285 285 284 284 283 283 283 283 283 282 282 282 282 282 282 282 282 282 282
301 300 299 298 297 296 296 297 297 297 298 298 298 297 297 297 296 295 294 294 293 293 293 292 291 291 290 290 289 288 288 288 287 287 286 285 284 283 283 282 282 282 282 281 281 281 281 281 282 281 281 281
301 300 299 297 297 296 296 297 297 297 297 298 297 297 297 296 296 295 294 294 293 293 293 292 291 291 290 290 289 289 289 289 288 288 286 285 284 283 283 282 282 282 281 280 280 281 281 281 281 281 281 281
302 301 301 300 299 299 299 299 299 299 299 299 297 297 296 296 296 295 294 294 293 293 293 292 291 291 290 290 290 289 288 288 287 287 286 284 284 283 282 282 282 282 281 280 280 280 280 281 280 280 280 280
302 302 303 303 302 302 302 301 301 301 300 298 296 296 296 296 295 295 295 294 294 293 293 292 292 291 290 290 290 289 288 287 287 286 286 285 284 283 282 282 281 281 281 280 280 280 282 282 281 282 282 280
301 301 301 301 301 301 300 298 298 297 296 295 294 294 294 294 295 295 295 295 294 293 293 292 291 291 290 290 290 289 288 287 287 287 286 285 284 283 282 281 281 281 280 281 281 281 283 281 281 286 284 280
300 299 299 298 297 296 295 295 294 293 293 293 293 293 294 295 295 295 295 295 294 293 293 292 292 291 290 290 290 289 288 288 287 287 287 286 284 283 283 282 281 281 280 281 281 282 284 282 284 289 284 280
299 298 297 296 295 294 293 293 292 293 293 293 294 294 295 296 295 295 295 294 294 293 293 292 292 291 290 290 289 289 288 287 287 287 286 286 285 284 284 283 281 281 281 280 280 281 283 284 286 287 282 281
298 297 296 296 295 295 294 293 293 294 295 295 295 295 295 295 295 295 294 294 293 293 292 292 291 291 290 290 289 289 288 287 287 287 286 286 286 285 284 283 281 281 281 280 279 280 281 282 282 282 281 283
Wind_Speed
22 22 22 21 21 21 20 20 20 20 19 18 17 16 15 14 14 13 12 11 10 10 9 9 8 8 8 8 8 8 9 10 10 10 10 9 8 7 7 6 6 7 7 7 8 8 8 9 9 10 9 11
23 24 23 22 22 22 21 21 20 20 19 18 17 17 16 16 15 14 12 12 11 11 10 9 8 8 8 8 8 8 9 9 8 8 7 6 5 5 5 5 5 5 6 6 6 6 7 7 8 8 8 9
25 25 23 23 23 22 21 20 20 19 19 19 19 19 19 19 18 15 13 13 12 11 11 10 10 9 8 7 7 7 7 7 6 5 4 4 3 3 4 4 4 4 5 5 5 6 6 6 6 7 7 8
26 25 24 24 23 21 20 19 19 19 20 19 19 20 21 20 19 18 17 15 14 13 12 12 11 9 8 7 7 7 7 6 4 4 3 3 2 1 2 3 3 4 4 4 5 5 5 5 5 5 6 7
26 25 24 23 22 21 20 19 19 20 20 19 18 19 19 19 18 19 19 18 16 14 13 12 12 11 9 8 7 8 7 5 4 4 3 3 2 2 1 2 2 3 4 4 4 5 4 4 4 4 5 5
27 26 25 24 22 22 21 21 21 20 19 18 17 17 18 17 17 18 18 18 16 14 13 13 13 13 11 10 9 9 7 6 4 4 4 3 3 2 2 2 2 2 3 4 4 5 4 4 4 4 5 5
28 28 26 25 23 23 22 22 21 19 18 17 16 16 16 16 17 17 17 17 16 14 14 15 14 14 13 11 10 9 7 6 5 4 4 4 3 3 3 2 2 2 3 3 4 4 4 4 4 4 5 4
30 29 27 26 25 24 24 23 21 19 18 17 16 16 16 16 16 17 17 17 17 16 16 15 14 14 12 11 9 8 7 6 5 4 4 4 4 4 4 3 3 3 3 3 4 4 4 4 4 4 5 5
32 31 29 27 26 25 24 23 21 20 19 18 17 17 16 16 16 17 18 17 17 16 16 15 14 12 10 9 8 8 7 6 6 4 4 5 5 5 5 4 4 4 3 3 3 3 4 4 4 4 5 5
33 32 30 29 28 27 25 24 22 21 20 19 19 18 17 17 17 18 17 17 17 17 16 15 14 13 11 10 8 8 7 7 7 6 6 6 6 6 6 5 5 5 5 4 4 4 4 4 4 4 5 5
33 33 31 30 29 28 27 25 24 23 22 21 20 19 19 18 18 18 18 18 17 17 16 15 15 14 12 10 9 8 7 7 7 7 7 7 7 7 7 6 6 6 5 5 5 4 4 4 4 4 5 5
34 33 32 31 30 29 28 26 25 24 22 22 22 21 19 18 17 17 17 18 17 17 17 16 16 14 13 11 9 8 8 8 8 8 8 8 8 8 8 7 7 7 6 6 5 5 5 4 4 4 5 5
35 34 33 33 32 30 29 28 26 24 24 23 23 22 20 19 18 18 17 17 17 18 17 17 17 15 13 11 9 8 8 8 8 8 8 8 8 8 8 8 7 7 7 6 6 6 5 5 4 5 5 5
37 36 35 35 33 32 30 29 27 25 25 24 24 23 22 20 19 18 17 17 17 18 18 18 17 16 14 12 10 9 8 8 8 9 8 8 8 8 8 8 8 7 7 7 7 6 6 6 5 5 5 5
39 38 37 36 34 33 31 30 28 27 27 26 25 24 23 22 21 19 18 17 17 17 18 18 17 16 15 13 11 9 9 9 9 9 9 9 8 8 8 8 8 7 7 7 7 7 7 7 6 6 6 5
41 40 38 37 36 34 32 31 30 29 29 28 27 26 24 23 22 21 19 18 17 17 18 18 17 17 15 14 12 11 10 10 10 11 10 10 10 9 9 8 8 8 8 7 7 7 7 7 7 7 7 6
42 41 40 38 37 35 34 33 32 32 31 30 29 28 26 25 23 22 21 19 18 18 17 17 17 17 16 14 13 11 11 11 12 12 12 12 11 11 10 9 9 9 8 8 8 8 7 8 8 8 8 7
43 43 41 39 38 37 36 35 35 34 33 32 30 29 28 26 25 24 22 21 20 19 18 18 18 18 17 16 15 13 13 12 13 13 13 13 12 12 11 10 10 9 9 9 8 8 8 8 8 8 8 8
45 44 42 41 40 39 38 37 37 36 35 33 32 31 29 28 27 25 24 23 21 20 19 19 19 18 18 17 16 15 14 13 13 13 13 14 14 13 12 12 11 10 10 9 9 9 9 9 9 9 9 9
46 45 44 42 41 41 40 39 39 38 36 35 34 32 31 30 29 28 26 25 23 22 21 20 20 19 19 18 18 17 16 15 15 14 15 15 15 14 14 13 13 12 12 11 11 10 10 10 10 10 10 10
46 45 44 44 43 42 41 41 40 39 38 37 35 34 33 32 31 30 28 27 26 24 23 22 21 20 20 20 20 19 17 16 16 16 16 16 16 16 15 14 14 14 13 13 13 12 12 11 11 12 12 12
46 44 44 44 43 43 42 42 41 40 40 38 37 36 35 35 34 32 30 29 28 27 25 24 23 22 21 22 21 21 19 18 17 17 17 17 17 17 17 16 16 15 15 14 15 14 14 13 13 13 13 13
43 41 41 40 40 40 40 41 41 41 40 39 38 38 38 37 35 34 33 32 31 29 28 27 26 25 24 24 23 23 22 20 20 19 19 19 18 18 18 18 17 16 15 15 16 16 15 14 15 15 15 15
39 38 37 36 36 37 38 40 41 41 41 40 41 41 40 39 38 37 36 35 33 32 31 30 29 28 27 26 26 25 25 24 23 22 21 21 21 20 20 20 19 18 16 16 16 16 16 15 15 16 16 16
40 39 37 35 36 37 38 40 41 41 43 43 43 43 42 41 40 39 38 37 35 34 33 32 31 30 29 28 28 28 27 26 24 23 23 22 22 22 22 22 21 20 17 14 14 14 15 16 16 16 17 17
43 44 43 40 40 40 41 42 43 44 45 46 45 44 43 42 41 41 39 38 37 36 35 35 35 34 32 31 30 29 28 27 26 25 25 24 24 23 23 23 21 21 18 13 12 9 6 10 14 16 17 18
45 46 45 44 43 43 43 44 45 46 45 44 44 44 44 43 42 41 40 39 38 38 38 38 37 36 35 33 32 31 31 30 29 28 27 27 26 24 23 23 22 23 21 16 12 6 2 4 5 9 15 19
45 44 43 42 41 40 40 39 39 40 39 39 40 42 42 43 43 42 41 41 41 40 40 40 39 38 37 35 34 34 33 33 32 31 30 29 29 27 24 24 24 24 24 21 15 7 1 1 1 3 8 14
43 40 38 37 34 31 31 29 29 31 33 34 36 38 41 43 43 43 43 42 42 42 41 41 40 39 38 37 36 36 35 35 34 33 32 31 31 31 29 27 26 24 25 27 24 14 5 2 2 3 3 6
42 39 38 36 34 30 27 26 27 32 35 36 39 41 42 43 43 44 44 43 43 43 42 42 41 41 40 39 38 38 37 36 35 35 34 34 33 33 32 30 26 25 27 28 29 25 15 7 4 3 4 5
42 41 39 39 39 37 35 33 33 36 38 40 42 42 42 42 42 43 44 44 44 44 44 43 42 42 41 41 40 39 38 38 37 37 36 35 35 34 34 32 29 28 29 27 29 33 28 18 9 5 6 5
Wind_Direction
166 166 164 162 157 154 153 151 151 150 149 149 148 150 151 151 151 149 148 147 144 141 139 138 134 129 122 116 113 111 110 107 105 103 100 100 100 100 98 98 95 92 93 93 94 95 96 97 99 100 102 106
169 169 166 163 159 157 156 155 155 153 152 151 150 152 154 156 155 151 152 151 147 144 141 139 137 132 126 121 118 116 111 110 110 112 110 108 105 98 97 102 102 97 96 94 96 97 96 96 97 99 100 103
171 170 168 166 165 164 164 165 166 163 158 156 158 164 166 167 162 156 156 152 148 146 147 146 140 133 132 126 125 123 113 117 126 126 126 126 118 101 99 106 111 107 104 102 102 102 100 98 97 99 97 99
174 172 172 171 171 170 172 174 172 169 168 170 175 179 178 178 175 169 164 159 160 159 161 161 148 136 137 133 132 130 122 135 151 152 162 171 163 135 108 114 125 121 116 116 115 115 111 106 104 105 100 99
175 175 176 175 175 174 174 173 171 173 178 184 187 187 186 187 186 183 179 177 180 179 174 167 153 142 142 141 139 133 134 151 167 168 189 202 196 193 158 135 140 131 128 128 126 127 123 121 120 118 112 108
177 178 180 178 177 176 176 175 177 182 186 189 190 191 192 192 193 192 192 192 193 192 183 172 164 155 145 140 141 140 150 166 179 186 199 210 204 199 186 169 157 140 136 135 136 137 133 136 136 132 127 121
181 182 183 183 182 181 181 183 187 190 191 192 193 194 195 195 195 195 197 199 199 198 190 181 177 172 163 160 163 169 179 185 198 208 213 216 206 200 193 184 176 158 149 142 142 143 140 145 143 139 136 133
186 186 187 188 187 187 188 191 194 195 195 195 196 195 196 196 195 195 197 199 201 200 196 192 192 190 186 188 193 200 206 212 221 223 220 216 204 202 199 195 193 178 170 157 149 148 147 148 144 143 139 137
189 189 190 191 191 192 194 196 197 197 198 196 197 197 197 196 195 196 197 199 201 201 201 202 202 199 197 200 206 213 219 225 228 221 209 206 202 201 200 199 197 190 188 176 168 162 155 152 145 145 142 138
192 192 193 194 195 196 198 200 199 198 198 197 198 198 197 196 196 198 199 200 201 203 204 204 203 201 201 206 213 217 222 225 224 219 206 202 201 200 200 199 196 191 191 186 181 176 164 159 151 148 146 141
196 196 197 197 199 200 201 201 201 200 199 200 200 198 199 199 199 200 201 202 204 205 205 204 204 205 208 212 217 220 223 224 221 218 210 204 201 199 200 198 196 193 190 189 184 181 173 165 158 153 150 146
199 200 200 201 201 203 204 203 203 203 202 203 201 200 202 203 204 204 204 206 206 207 206 205 206 209 213 217 220 222 222 222 219 217 213 208 203 200 200 198 196 193 189 189 184 183 179 172 168 159 155 151
202 203 203 203 204 204 206 206 206 205 205 205 203 203 204 206 207 207 208 209 209 209 208 207 209 212 216 219 223 226 225 225 221 218 215 210 207 202 200 199 196 193 190 189 185 184 183 178 178 169 164 159
205 206 205 206 207 207 208 209 208 207 209 208 206 206 207 209 210 210 211 211 211 212 211 210 211 213 215 220 224 228 229 229 225 222 220 215 213 207 203 201 198 195 192 191 188 184 185 184 184 182 177 170
208 209 209 209 209 210 210 211 210 209 211 210 210 210 210 211 211 213 214 214 214 214 215 215 215 217 218 221 223 227 229 229 228 224 222 220 217 213 208 206 203 201 197 195 192 187 187 187 187 189 188 185
210 211 211 212 211 212 213 213 212 212 212 211 212 212 212 213 213 214 215 216 218 217 218 219 220 221 222 224 224 226 228 228 228 224 222 220 218 217 212 211 208 206 204 201 199 194 191 191 191 194 192 191
212 213 212 214 214 215 215 214 214 214 214 213 213 213 214 216 216 216 217 219 221 220 221 222 223 225 225 227 226 226 227 227 226 223 222 221 219 220 217 216 214 212 210 206 205 203 200 198 197 198 197 196
214 214 214 215 217 216 216 215 216 216 216 215 214 215 216 218 218 219 221 221 222 221 222 223 225 227 227 227 226 226 227 228 227 224 224 223 221 223 222 221 220 219 217 214 212 211 210 208 205 204 203 202
215 216 216 217 217 217 218 217 218 218 218 217 217 218 219 220 221 222 223 223 223 223 224 225 226 227 227 227 227 227 227 228 228 227 226 225 224 224 223 223 223 224 223 221 219 220 219 216 214 211 209 209
217 217 217 218 219 219 220 219 220 220 221 220 219 220 222 223 223 223 224 224 225 225 225 226 228 229 228 227 228 228 227 228 230 229 227 226 226 226 225 225 226 225 224 224 224 225 227 224 222 217 214 216
216 217 218 219 220 221 221 221 221 223 223 222 221 223 225 226 225 224 225 226 227 228 228 229 230 230 229 229 230 230 228 229 231 231 230 229 227 228 228 229 229 227 225 224 225 226 228 228 225 222 218 219
216 216 218 220 221 222 222 222 223 224 224 223 224 225 227 227 226 226 226 227 228 229 230 230 231 231 229 229 229 230 230 230 231 231 231 231 230 229 229 230 229 230 228 225 226 227 227 228 225 223 222 221
215 215 217 218 220 221 222 222 223 223 224 225 226 227 228 229 227 228 227 227 228 228 230 230 230 230 229 229 229 229 228 228 228 229 230 231 231 229 229 231 229 229 230 229 229 229 228 229 227 224 224 225
212 213 214 215 216 218 220 221 223 224 227 228 229 229 229 229 229 229 228 227 227 228 229 230 230 230 229 228 228 228 228 229 230 232 233 233 231 229 228 229 228 226 228 230 232 232 232 232 230 228 227 229
210 210 211 213 215 217 219 221 223 225 227 229 230 230 229 230 230 229 229 228 228 228 230 231 231 231 229 228 229 230 233 234 234 234 235 234 230 229 228 227 227 225 223 227 232 235 238 238 235 234 233 234
211 212 213 215 217 219 221 224 225 226 229 230 230 230 229 230 230 229 230 230 230 230 231 231 231 231 230 230 230 231 233 233 233 232 232 231 228 227 228 229 228 225 219 217 220 223 242 247 243 242 240 239
213 215 216 218 220 222 223 226 227 229 230 229 228 229 229 229 230 230 231 232 232 232 232 232 232 232 232 232 231 231 231 230 230 230 230 230 229 226 224 227 228 225 220 213 204 191 221 247 239 249 245 237
216 217 218 218 221 223 223 224 226 227 228 228 228 228 228 229 230 231 232 233 233 232 233 233 233 234 233 233 232 232 231 230 230 230 230 230 228 224 220 222 225 224 222 215 201 176 165 169 131 256 240 225
216 215 215 215 217 220 220 222 223 221 222 225 227 228 229 230 231 232 233 233 233 233 234 234 234 235 234 234 233 232 232 233 233 232 232 231 229 226 224 223 222 221 221 219 213 199 173 124 168 246 210 186
214 213 212 210 209 210 211 214 216 217 220 222 226 229 231 232 232 232 233 233 234 234 234 235 235 235 235 235 234 234 233 233 234 233 233 233 231 230 230 226 221 219 220 221 218 213 211 206 199 198 156 141
213 212 211 211 211 212 211 213 217 220 223 225 227 229 231 232 233 233 233 234 234 234 234 235 236 236 236 236 236 235 234 233 234 235 235 235 234 234 232 225 220 221 221 218 218 218 220 225 220 186 164 169